Time,TemperatureF,DewpointF,PressureIn,WindDirection,WindDirectionDegrees,WindSpeedMPH,WindSpeedGustMPH,Humidity,HourlyPrecipIn,Conditions,Clouds,dailyrainin,SoftwareType,DateUTC
2013-07-03 00:01:00,73.0,39.0,-100.00,North,-999,-999.0,-999.0,30,0.00,,,0.00,,2013-07-03 05:01:00,
2013-07-03 00:23:00,72.0,40.0,-100.00,North,-999,-999.0,-999.0,32,0.00,,,0.00,,2013-07-03 05:23:00,
2013-07-03 00:36:00,72.0,40.0,-100.00,North,-999,-999.0,-999.0,32,0.00,,,0.00,,2013-07-03 05:36:00,
2013-07-03 00:55:00,72.0,41.0,-100.00,North,-999,-999.0,-999.0,33,0.00,,,0.00,,2013-07-03 05:55:00,
2013-07-03 01:04:00,72.0,41.0,-100.00,North,-999,-999.0,-999.0,33,0.00,,,0.00,,2013-07-03 06:04:00,
2013-07-03 01:24:00,71.0,42.0,-100.00,North,-999,-999.0,-999.0,35,0.00,,,-99.99,,2013-07-03 06:24:00,
2013-07-03 01:38:00,71.0,42.0,-100.00,North,-999,-999.0,-999.0,35,0.00,,,0.00,,2013-07-03 06:38:00,
2013-07-03 01:54:00,71.0,42.0,-100.00,North,-999,-999.0,-999.0,35,0.00,,,0.00,,2013-07-03 06:54:00,
2013-07-03 02:04:00,71.0,42.0,-100.00,North,-999,-999.0,-999.0,35,0.00,,,0.00,,2013-07-03 07:04:00,
2013-07-03 02:25:00,71.0,42.0,-100.00,North,-999,-999.0,-999.0,36,0.00,,,-99.99,,2013-07-03 07:25:00,
2013-07-03 02:37:00,71.0,42.0,-100.00,North,-999,-999.0,-999.0,36,0.00,,,-99.99,,2013-07-03 07:37:00,
2013-07-03 02:55:00,70.0,43.0,-100.00,North,-999,-999.0,-999.0,38,0.00,,,0.00,,2013-07-03 07:55:00,
2013-07-03 03:07:00,70.0,44.0,-100.00,North,-999,-999.0,-999.0,39,0.00,,,0.00,,2013-07-03 08:07:00,
2013-07-03 03:24:00,70.0,44.0,-100.00,North,-999,-999.0,-999.0,40,0.00,,,0.00,,2013-07-03 08:24:00,
2013-07-03 03:36:00,69.0,44.0,-100.00,North,-999,-999.0,-999.0,41,0.00,,,0.00,,2013-07-03 08:36:00,
2013-07-03 04:03:00,68.0,44.0,-100.00,North,-999,-999.0,-999.0,42,0.00,,,-99.99,,2013-07-03 09:03:00,
2013-07-03 04:24:00,68.0,44.0,-100.00,North,-999,-999.0,-999.0,43,0.00,,,0.00,,2013-07-03 09:24:00,
2013-07-03 04:36:00,68.0,45.0,-100.00,North,-999,-999.0,-999.0,43,0.00,,,0.00,,2013-07-03 09:36:00,
2013-07-03 04:46:00,68.0,45.0,-100.00,North,-999,-999.0,-999.0,43,0.00,,,0.00,,2013-07-03 09:46:00,
2013-07-03 05:04:00,68.0,45.0,-100.00,North,-999,-999.0,-999.0,44,0.00,,,0.00,,2013-07-03 10:04:00,
2013-07-03 05:36:00,69.0,46.0,-100.00,North,-999,-999.0,-999.0,43,0.00,,,0.00,,2013-07-03 10:36:00,
2013-07-03 05:55:00,69.0,47.0,-100.00,North,-999,-999.0,-999.0,46,-99.99,,,0.00,,2013-07-03 10:55:00,
2013-07-03 06:05:00,68.0,47.0,-100.00,North,-999,-999.0,-999.0,47,0.00,,,0.00,,2013-07-03 11:05:00,
2013-07-03 06:24:00,68.0,48.0,-100.00,North,-999,-999.0,-999.0,48,0.00,,,0.00,,2013-07-03 11:24:00,
2013-07-03 06:38:00,68.0,49.0,-100.00,North,-999,-999.0,-999.0,49,0.00,,,0.00,,2013-07-03 11:38:00,
2013-07-03 06:53:00,68.0,49.0,-100.00,North,-999,-999.0,-999.0,51,0.00,,,-99.99,,2013-07-03 11:53:00,
2013-07-03 07:23:00,63.0,50.0,-100.00,North,-999,-999.0,-999.0,61,0.00,,,0.00,,2013-07-03 12:23:00,
2013-07-03 07:36:00,63.0,50.0,-100.00,North,-999,-999.0,-999.0,61,0.00,,,0.00,,2013-07-03 12:36:00,
2013-07-03 07:43:00,63.0,50.0,-100.00,North,-999,-999.0,-999.0,61,0.00,,,0.00,,2013-07-03 12:43:00,
2013-07-03 09:26:00,75.0,52.0,-100.00,North,-999,-999.0,-999.0,45,-99.99,,,-99.99,,2013-07-03 14:26:00,
2013-07-03 09:36:00,75.0,52.0,-100.00,North,-999,-999.0,-999.0,45,-99.99,,,-99.99,,2013-07-03 14:36:00,
2013-07-03 09:54:00,77.0,53.0,-100.00,North,-999,-999.0,-999.0,44,0.00,,,0.00,,2013-07-03 14:54:00,
2013-07-03 10:05:00,79.0,51.0,-100.00,North,-999,-999.0,-999.0,38,0.00,,,0.00,,2013-07-03 15:05:00,
2013-07-03 10:14:00,79.0,51.0,-100.00,North,-999,-999.0,-999.0,38,0.00,,,0.00,,2013-07-03 15:14:00,
2013-07-03 10:25:00,79.0,51.0,-100.00,North,-999,-999.0,-999.0,38,0.00,,,0.00,,2013-07-03 15:25:00,
2013-07-03 10:37:00,80.0,50.0,-100.00,North,-999,-999.0,-999.0,36,0.00,,,0.00,,2013-07-03 15:37:00,
2013-07-03 10:45:00,80.0,50.0,-100.00,North,-999,-999.0,-999.0,36,0.00,,,0.00,,2013-07-03 15:45:00,
2013-07-03 10:57:00,80.0,50.0,-100.00,North,-999,-999.0,-999.0,36,0.00,,,0.00,,2013-07-03 15:57:00,
2013-07-03 11:06:00,82.0,49.0,-100.00,North,-999,-999.0,-999.0,32,0.00,,,0.00,,2013-07-03 16:06:00,
2013-07-03 11:23:00,81.0,48.0,-100.00,North,-999,-999.0,-999.0,31,-99.99,,,0.00,,2013-07-03 16:23:00,
2013-07-03 11:36:00,83.0,48.0,-100.00,North,-999,-999.0,-999.0,30,0.00,,,0.00,,2013-07-03 16:36:00,
2013-07-03 12:06:00,84.0,46.0,-100.00,North,-999,-999.0,-999.0,26,0.00,,,0.00,,2013-07-03 17:06:00,
2013-07-03 12:24:00,85.0,45.0,-100.00,North,-999,-999.0,-999.0,25,0.00,,,-99.99,,2013-07-03 17:24:00,
2013-07-03 12:38:00,86.0,44.0,-100.00,North,-999,-999.0,-999.0,23,0.00,,,0.00,,2013-07-03 17:38:00,
2013-07-03 12:53:00,87.0,44.0,-100.00,North,-999,-999.0,-999.0,22,0.00,,,0.00,,2013-07-03 17:53:00,
2013-07-03 13:05:00,87.0,43.0,-100.00,North,-999,-999.0,-999.0,22,0.00,,,0.00,,2013-07-03 18:05:00,
2013-07-03 13:35:00,87.0,40.0,-100.00,North,-999,-999.0,-999.0,19,0.00,,,0.00,,2013-07-03 18:35:00,
2013-07-03 14:04:00,87.0,41.0,-100.00,North,-999,-999.0,-999.0,20,0.00,,,0.00,,2013-07-03 19:04:00,
2013-07-03 14:27:00,88.0,39.0,-100.00,North,-999,-999.0,-999.0,18,0.00,,,0.00,,2013-07-03 19:27:00,
2013-07-03 14:35:00,89.0,41.0,-100.00,North,-999,-999.0,-999.0,19,0.00,,,0.00,,2013-07-03 19:35:00,
2013-07-03 14:54:00,88.0,41.0,-100.00,North,-999,-999.0,-999.0,19,0.00,,,0.00,,2013-07-03 19:54:00,
2013-07-03 15:03:00,89.0,40.0,-100.00,North,-999,-999.0,-999.0,18,0.00,,,0.00,,2013-07-03 20:03:00,
2013-07-03 15:23:00,89.0,40.0,-100.00,North,-999,-999.0,-999.0,18,0.00,,,0.00,,2013-07-03 20:23:00,
2013-07-03 15:36:00,89.0,40.0,-100.00,North,-999,-999.0,-999.0,18,0.00,,,0.00,,2013-07-03 20:36:00,
2013-07-03 15:53:00,89.0,40.0,-100.00,North,-999,-999.0,-999.0,18,0.00,,,0.00,,2013-07-03 20:53:00,
2013-07-03 16:05:00,88.0,39.0,-100.00,North,-999,-999.0,-999.0,18,0.00,,,0.00,,2013-07-03 21:05:00,
2013-07-03 16:24:00,89.0,41.0,-100.00,North,-999,-999.0,-999.0,19,0.00,,,-99.99,,2013-07-03 21:24:00,
2013-07-03 16:35:00,88.0,39.0,-100.00,North,-999,-999.0,-999.0,18,0.00,,,0.00,,2013-07-03 21:35:00,
2013-07-03 16:53:00,90.0,38.0,-100.00,North,-999,-999.0,-999.0,16,0.00,,,0.00,,2013-07-03 21:53:00,
2013-07-03 17:03:00,90.0,38.0,-100.00,North,-999,-999.0,-999.0,16,0.00,,,0.00,,2013-07-03 22:03:00,
2013-07-03 17:37:00,90.0,40.0,-100.00,North,-999,-999.0,-999.0,17,0.00,,,0.00,,2013-07-03 22:37:00,
2013-07-03 17:54:00,87.0,40.0,-100.00,North,-999,-999.0,-999.0,19,0.00,,,0.00,,2013-07-03 22:54:00,
2013-07-03 18:03:00,88.0,39.0,-100.00,North,-999,-999.0,-999.0,18,0.00,,,0.00,,2013-07-03 23:03:00,
2013-07-03 18:24:00,87.0,40.0,-100.00,North,-999,-999.0,-999.0,19,0.00,,,0.00,,2013-07-03 23:24:00,
2013-07-03 19:02:00,89.0,41.0,-100.00,North,-999,-999.0,-999.0,19,0.00,,,0.00,,2013-07-04 00:02:00,
2013-07-03 19:23:00,88.0,41.0,-100.00,North,-999,-999.0,-999.0,19,0.00,,,-99.99,,2013-07-04 00:23:00,
2013-07-03 19:35:00,87.0,40.0,-100.00,North,-999,-999.0,-999.0,19,0.00,,,0.00,,2013-07-04 00:35:00,
2013-07-03 20:15:00,87.0,41.0,-100.00,North,-999,-999.0,-999.0,20,0.00,,,0.00,,2013-07-04 01:15:00,
2013-07-03 20:23:00,87.0,41.0,-100.00,North,-999,-999.0,-999.0,20,0.00,,,0.00,,2013-07-04 01:23:00,
2013-07-03 20:35:00,85.0,41.0,-100.00,North,-999,-999.0,-999.0,21,0.00,,,0.00,,2013-07-04 01:35:00,
2013-07-03 21:05:00,84.0,41.0,-100.00,North,-999,-999.0,-999.0,22,0.00,,,-99.99,,2013-07-04 02:05:00,
2013-07-03 21:23:00,82.0,41.0,-100.00,North,-999,-999.0,-999.0,24,-99.99,,,0.00,,2013-07-04 02:23:00,
2013-07-03 21:38:00,81.0,41.0,-100.00,North,-999,-999.0,-999.0,25,0.00,,,0.00,,2013-07-04 02:38:00,
2013-07-03 21:46:00,81.0,41.0,-100.00,North,-999,-999.0,-999.0,25,0.00,,,0.00,,2013-07-04 02:46:00,
2013-07-03 21:55:00,81.0,41.0,-100.00,North,-999,-999.0,-999.0,25,0.00,,,0.00,,2013-07-04 02:55:00,
2013-07-03 22:04:00,81.0,41.0,-100.00,North,-999,-999.0,-999.0,25,0.00,,,0.00,,2013-07-04 03:04:00,
2013-07-03 22:26:00,79.0,40.0,-100.00,North,-999,-999.0,-999.0,25,0.00,,,-99.99,,2013-07-04 03:26:00,
2013-07-03 22:34:00,79.0,41.0,-100.00,North,-999,-999.0,-999.0,26,0.00,,,0.00,,2013-07-04 03:34:00,
2013-07-03 22:55:00,78.0,40.0,-100.00,North,-999,-999.0,-999.0,26,-99.99,,,0.00,,2013-07-04 03:55:00,
2013-07-03 23:02:00,78.0,41.0,-100.00,North,-999,-999.0,-999.0,27,0.00,,,0.00,,2013-07-04 04:02:00,
2013-07-03 23:22:00,77.0,41.0,-100.00,North,-999,-999.0,-999.0,27,0.00,,,0.00,,2013-07-04 04:22:00,
2013-07-03 23:33:00,77.0,41.0,-100.00,North,-999,-999.0,-999.0,28,0.00,,,0.00,,2013-07-04 04:33:00,
2013-07-03 23:43:00,77.0,41.0,-100.00,North,-999,-999.0,-999.0,28,0.00,,,0.00,,2013-07-04 04:43:00,
2013-07-03 23:52:00,77.0,41.0,-100.00,North,-999,-999.0,-999.0,28,0.00,,,0.00,,2013-07-04 04:52:00,